{"data":{"norad_id":62454,"intl_designator":"2024-252A","name":"ASTRANIS UTILITYSAT","alt_names":[],"object_type":"PAYLOAD","status":"ACTIVE","operator":null,"country":"UK","launch_date":"2024-12-29","launch_site_code":"AFETR","launch_vehicle":null,"mission":null,"orbit_class":"UNKNOWN","rcs_meters":null,"size_class":null,"mass_kg":null,"dimensions":null,"purposes":[],"wikipedia_slug":null,"has_3d_model":false,"image_url":null,"decayed_at":null,"tle_current":{"epoch":"2026-09-21T18:59:34.257408Z","epoch_age_seconds":203348,"freshness":"STALE","line1":"1 62454U 24252A   26264.79136872 -.00000181  00000+0  00000+0 0  9998","line2":"2 62454   9.1460 324.1815 7552960 263.6648  14.2900  1.00302930  6398","mean_motion":1.0030293,"eccentricity":0.755296,"inclination_deg":9.146,"raan_deg":324.1815,"arg_perigee_deg":263.6648,"mean_anomaly_deg":14.29,"bstar":0,"rev_number":639,"period_min":1435.6509824788,"perigee_km":3937.6055939381,"apogee_km":67618.126698873,"semimajor_km":42156.003146406,"source":"CELESTRAK","updated_at":"2026-09-23T09:00:21.433751Z"}}}